Location: Mission Viejo Division
(33.5624°N, 117.5924°W)
Time: 10:38:03
(UTC+00:00)

Daily predictions for brighter satellites

Satellite Brightness Start Highest point End
(mag) Time Altitude Azimuth Time Altitude Azimuth Time Altitude Azimuth
Cosmos 1939 Rocket 4.2 12:03:04 10° NNE 12:06:51 41° E 12:10:38 10° S
Iridium 921 4.4 12:05:04 10° S 12:08:28 67° W 12:11:55 10° N
Atlas Centaur 2 2.5 12:06:03 10° SW 12:09:07 24° SSE 12:12:03 10° ESE
CBERS-1 4.4 12:04:11 10° NNE 12:09:16 68° ESE 12:14:20 10° S
Cosmos 304 Rocket 4.0 12:04:50 10° SSW 12:09:27 51° WNW 12:14:05 10° N
Cosmos 1025 Rocket 4.0 12:07:17 10° SW 12:11:04 29° WNW 12:14:52 10° NNW
Cosmos 1455 Rocket 3.0 12:10:48 10° N 12:15:09 71° W 12:19:31 10° S
IRS-1D 4.3 12:10:54 10° N 12:15:47 38° WNW 12:20:36 10° SW
Cosmos 2322 3.7 12:10:45 10° NNW 12:16:25 73° WSW 12:22:03 10° SSE
